This is the latest recevied weather packets stored in our database for station/object K1LVA. If no packets are shown the sender has not sent any weather packets the latest 10 day(s).
| Time | Temp. | Humidity | Pressure | Rain* | Wind** | Luminosity | Snow |
|---|---|---|---|---|---|---|---|
| 1777807845 | 7.22° C | 99% | 1019.3 hPa | 0 mm | - | 52 W/m² | - |
| 1777807543 | 7.22° C | 99% | 1019.4 hPa | 0 mm | - | 42 W/m² | - |
| 1777807239 | 7.22° C | 99% | 1019.2 hPa | 0 mm | - | 38 W/m² | - |
| 1777806936 | 7.22° C | 99% | 1019 hPa | 0 mm | - | 35 W/m² | - |
| 1777806632 | 7.22° C | 99% | 1018.8 hPa | 0 mm | - | 29 W/m² | - |
| 1777806328 | 7.22° C | 99% | 1018.9 hPa | 0 mm | - | 23 W/m² | - |
| 1777806025 | 7.22° C | 99% | 1018.9 hPa | 0 mm | - | 18 W/m² | - |
| 1777805721 | 7.22° C | 99% | 1018.7 hPa | 0 mm | - | 14 W/m² | - |
| 1777805420 | 6.67° C | 99% | 1018.5 hPa | 0 mm | - | 9 W/m² | - |
| 1777805117 | 6.67° C | 99% | 1018.4 hPa | 0 mm | - | 5 W/m² | - |
| 1777804815 | 6.67° C | 99% | 1018.7 hPa | 0 mm | - | 3 W/m² | - |
| 1777804512 | 6.11° C | 99% | 1018.6 hPa | 0 mm | - | 0 W/m² | - |
| 1777804210 | 6.11° C | 99% | 1018.4 hPa | 0 mm | - | 0 W/m² | - |
| 1777803906 | 5.56° C | 99% | 1018.4 hPa | 0 mm | - | 0 W/m² | - |
| 1777803603 | 5.56° C | 99% | 1018.5 hPa | 0 mm | - | 0 W/m² | - |
| 1777803299 | 5.56° C | 99% | 1018.4 hPa | 0 mm | - | 0 W/m² | - |
| 1777802996 | 5.56° C | 99% | 1018.1 hPa | 0 mm | - | 0 W/m² | - |
| 1777802694 | 5.56° C | 99% | 1018.3 hPa | 0 mm | - | 0 W/m² | - |
| 1777802391 | 5.56° C | 99% | 1018 hPa | 0 mm | - | 0 W/m² | - |
| 1777802090 | 6.11° C | 99% | 1018 hPa | 0 mm | - | 0 W/m² | - |
| 1777801787 | 6.11° C | 99% | 1017.9 hPa | 0 mm | - | 0 W/m² | - |
| 1777801484 | 6.11° C | 99% | 1018 hPa | 0 mm | - | 0 W/m² | - |
| 1777801180 | 6.11° C | 99% | 1018 hPa | 0 mm | - | 0 W/m² | - |
| 1777800878 | 6.11° C | 99% | 1017.6 hPa | 0 mm | - | 0 W/m² | - |
| 1777800573 | 6.67° C | 99% | 1017.9 hPa | 0 mm | - | 0 W/m² | - |
* Rain latest hour (hover to see other rain measurements)
** Current wind speed in m/s (hover to see current wind gust speed)